When you browse on this site, cookies collect data to enhance your experience and personalize the content and advertising you see.
Visit our Privacy Policy to learn more. By continuing to use the site, you agree to this use of cookies and data.
  • în România
  • Lista ţărilor
  • Pe 7 zile
  • Temperatura apei
  • Meteo pe hartă
  • Widget-uri
  • user-avatar
    Intrare

    Meteo pe oră la Campo Grande

    Astăzi, 21 Ianuarie, Marţi

    Timp Temperatura Precipitaţii Vânt Presiune Umiditate
    00:00 +26°C° 0 mm 3 m/s 707 mmHg 82%
    01:00 +26°C° 0 mm 3 m/s 706 mmHg 84%
    02:00 +25°C° 0 mm 2 m/s 706 mmHg 87%
    03:00 +25°C° 0 mm 2 m/s 706 mmHg 88%
    04:00 +25°C° 0 mm 2 m/s 706 mmHg 89%
    05:00 +24°C° 0 mm 2 m/s 706 mmHg 90%
    06:00 +26°C° 0 mm 2 m/s 707 mmHg 84%
    07:00 +28°C° 0 mm 2 m/s 707 mmHg 77%
    08:00 +30°C° 0 mm 2 m/s 708 mmHg 68%
    09:00 +31°C° 0.1 mm 2 m/s 707 mmHg 64%
    10:00 +32°C° 0.1 mm 2 m/s 707 mmHg 60%
    11:00 +34°C° 0.1 mm 2 m/s 707 mmHg 55%
    12:00 +34°C° 1.4 mm 2 m/s 706 mmHg 56%
    13:00 +33°C° 1.4 mm 1 m/s 706 mmHg 57%
    14:00 +33°C° 1.4 mm 1 m/s 705 mmHg 58%
    15:00 +32°C° 0.7 mm 1 m/s 705 mmHg 61%
    16:00 +32°C° 0.7 mm 2 m/s 704 mmHg 64%
    17:00 +32°C° 0.7 mm 2 m/s 704 mmHg 66%
    18:00 +30°C° 0.2 mm 2 m/s 704 mmHg 69%
    19:00 +29°C° 0.2 mm 2 m/s 705 mmHg 72%
    20:00 +28°C° 0.2 mm 3 m/s 705 mmHg 76%
    21:00 +27°C° 0.2 mm 3 m/s 705 mmHg 79%
    22:00 +26°C° 0.2 mm 3 m/s 705 mmHg 82%
    23:00 +26°C° 0.2 mm 2 m/s 705 mmHg 86%

    Mâine, 22 Ianuarie, Miercuri

    Timp Temperatura Precipitaţii Vânt Presiune Umiditate
    00:00 +25°C° 0.3 mm 3 m/s 705 mmHg 86%
    01:00 +25°C° 0.3 mm 3 m/s 705 mmHg 87%
    02:00 +25°C° 0.3 mm 3 m/s 704 mmHg 88%
    03:00 +25°C° 0.5 mm 2 m/s 704 mmHg 89%
    04:00 +25°C° 0.5 mm 2 m/s 704 mmHg 89%
    05:00 +24°C° 0.5 mm 2 m/s 705 mmHg 90%
    06:00 +25°C° 1.8 mm 2 m/s 705 mmHg 89%
    07:00 +26°C° 1.8 mm 3 m/s 705 mmHg 87%
    08:00 +27°C° 1.8 mm 3 m/s 706 mmHg 85%
    09:00 +27°C° 0.8 mm 2 m/s 705 mmHg 85%
    10:00 +27°C° 0.8 mm 2 m/s 705 mmHg 86%
    11:00 +27°C° 0.8 mm 1 m/s 705 mmHg 86%
    12:00 +27°C° 1.3 mm 1 m/s 705 mmHg 86%
    13:00 +27°C° 1.3 mm 1 m/s 704 mmHg 85%
    14:00 +27°C° 1.3 mm 1 m/s 704 mmHg 85%
    15:00 +27°C° 0.2 mm 1 m/s 703 mmHg 84%
    16:00 +27°C° 0.2 mm 1 m/s 703 mmHg 83%
    17:00 +25°C° 0.2 mm 0 m/s 703 mmHg 83%
    18:00 +27°C° 0.7 mm 1 m/s 703 mmHg 85%
    19:00 +26°C° 0.7 mm 1 m/s 703 mmHg 88%
    20:00 +25°C° 0.7 mm 1 m/s 703 mmHg 91%
    21:00 +25°C° 1.1 mm 2 m/s 704 mmHg 92%
    22:00 +24°C° 1.1 mm 3 m/s 704 mmHg 93%
    23:00 +24°C° 1.1 mm 3 m/s 704 mmHg 94%

    Poimâine, 23 Ianuarie, Joi

    Timp Temperatura Precipitaţii Vânt Presiune Umiditate
    00:00 +24°C° 1.3 mm 3 m/s 704 mmHg 94%
    01:00 +24°C° 1.3 mm 3 m/s 703 mmHg 94%
    02:00 +23°C° 1.3 mm 4 m/s 703 mmHg 94%
    03:00 +23°C° 0.1 mm 4 m/s 703 mmHg 94%
    04:00 +22°C° 0.1 mm 4 m/s 703 mmHg 94%
    05:00 +22°C° 0.1 mm 4 m/s 703 mmHg 94%
    06:00 +23°C° 0 mm 4 m/s 704 mmHg 93%
    07:00 +23°C° 0 mm 4 m/s 704 mmHg 92%
    08:00 +23°C° 0 mm 4 m/s 704 mmHg 91%
    09:00 +25°C° 0.3 mm 4 m/s 705 mmHg 88%
    10:00 +26°C° 0.3 mm 3 m/s 705 mmHg 85%
    11:00 +27°C° 0.3 mm 3 m/s 705 mmHg 82%
    12:00 +27°C° 0.9 mm 4 m/s 704 mmHg 83%
    13:00 +27°C° 0.9 mm 5 m/s 704 mmHg 83%
    14:00 +26°C° 0.9 mm 5 m/s 704 mmHg 84%
    15:00 +26°C° 0.1 mm 6 m/s 703 mmHg 84%
    16:00 +24°C° 0.1 mm 6 m/s 703 mmHg 84%
    17:00 +23°C° 0.1 mm 6 m/s 703 mmHg 84%
    18:00 +23°C° 0 mm 6 m/s 703 mmHg 85%
    19:00 +22°C° 0 mm 5 m/s 704 mmHg 86%
    20:00 +22°C° 0 mm 5 m/s 704 mmHg 87%
    21:00 +21°C° 0 mm 5 m/s 705 mmHg 88%
    22:00 +21°C° 0 mm 4 m/s 705 mmHg 88%
    23:00 +21°C° 0 mm 4 m/s 705 mmHg 89%

    24 Ianuarie, Vineri

    Timp Temperatura Precipitaţii Vânt Presiune Umiditate
    00:00 +21°C° 0 mm 4 m/s 705 mmHg 88%
    01:00 +21°C° 0 mm 4 m/s 705 mmHg 88%
    02:00 +21°C° 0 mm 3 m/s 704 mmHg 87%
    03:00 +21°C° 0 mm 3 m/s 704 mmHg 89%
    04:00 +20°C° 0 mm 3 m/s 705 mmHg 91%
    05:00 +20°C° 0 mm 3 m/s 705 mmHg 92%
    06:00 +21°C° 0 mm 3 m/s 705 mmHg 89%
    07:00 +22°C° 0 mm 4 m/s 706 mmHg 87%
    08:00 +23°C° 0 mm 4 m/s 706 mmHg 84%
    09:00 +25°C° 0 mm 4 m/s 706 mmHg 79%
    10:00 +26°C° 0 mm 3 m/s 707 mmHg 75%
    11:00 +28°C° 0 mm 3 m/s 707 mmHg 70%
    12:00 +28°C° 0.1 mm 3 m/s 706 mmHg 68%
    13:00 +29°C° 0.1 mm 3 m/s 706 mmHg 66%
    14:00 +29°C° 0.1 mm 4 m/s 706 mmHg 64%
    15:00 +29°C° 0 mm 3 m/s 705 mmHg 65%
    16:00 +29°C° 0 mm 3 m/s 705 mmHg 67%
    17:00 +28°C° 0 mm 3 m/s 705 mmHg 68%
    18:00 +27°C° 0 mm 3 m/s 705 mmHg 72%
    19:00 +26°C° 0 mm 3 m/s 706 mmHg 75%
    20:00 +24°C° 0 mm 2 m/s 706 mmHg 79%
    21:00 +24°C° 0 mm 2 m/s 707 mmHg 80%
    22:00 +23°C° 0 mm 2 m/s 707 mmHg 81%
    23:00 +23°C° 0 mm 2 m/s 707 mmHg 81%

    25 Ianuarie, Sâmbătă

    Timp Temperatura Precipitaţii Vânt Presiune Umiditate
    00:00 +23°C° 0 mm 2 m/s 707 mmHg 82%
    01:00 +21°C° 0 mm 2 m/s 707 mmHg 83%
    02:00 +22°C° 0 mm 1 m/s 706 mmHg 84%
    03:00 +22°C° 0 mm 1 m/s 706 mmHg 84%
    04:00 +22°C° 0 mm 1 m/s 707 mmHg 85%
    05:00 +21°C° 0 mm 1 m/s 707 mmHg 85%
    06:00 +23°C° 0 mm 2 m/s 707 mmHg 80%
    07:00 +25°C° 0 mm 2 m/s 708 mmHg 75%
    08:00 +26°C° 0 mm 2 m/s 709 mmHg 70%
    09:00 +28°C° 0 mm 2 m/s 709 mmHg 65%
    10:00 +29°C° 0 mm 1 m/s 709 mmHg 59%
    11:00 +31°C° 0 mm 1 m/s 709 mmHg 54%
    12:00 +31°C° 0.1 mm 1 m/s 709 mmHg 53%
    13:00 +31°C° 0.1 mm 1 m/s 708 mmHg 53%
    14:00 +31°C° 0.1 mm 1 m/s 708 mmHg 52%
    15:00 +31°C° 0 mm 1 m/s 707 mmHg 56%
    16:00 +30°C° 0 mm 2 m/s 707 mmHg 60%
    17:00 +29°C° 0 mm 2 m/s 707 mmHg 64%
    18:00 +28°C° 0 mm 2 m/s 707 mmHg 66%
    19:00 +27°C° 0 mm 2 m/s 707 mmHg 68%
    20:00 +26°C° 0 mm 2 m/s 708 mmHg 70%
    21:00 +25°C° 0 mm 2 m/s 708 mmHg 69%
    22:00 +25°C° 0 mm 2 m/s 708 mmHg 68%
    23:00 +25°C° 0 mm 2 m/s 708 mmHg 68%

    26 Ianuarie, Duminică

    Timp Temperatura Precipitaţii Vânt Presiune Umiditate
    00:00 +24°C° 0 mm 2 m/s 708 mmHg 70%
    01:00 +24°C° 0 mm 2 m/s 708 mmHg 72%
    02:00 +23°C° 0 mm 2 m/s 708 mmHg 74%
    03:00 +23°C° 0 mm 2 m/s 708 mmHg 76%
    04:00 +23°C° 0 mm 2 m/s 708 mmHg 77%
    05:00 +23°C° 0 mm 2 m/s 708 mmHg 79%
    06:00 +25°C° 0 mm 2 m/s 709 mmHg 74%
    07:00 +26°C° 0 mm 2 m/s 709 mmHg 69%
    08:00 +28°C° 0 mm 2 m/s 710 mmHg 64%
    09:00 +30°C° 0 mm 2 m/s 710 mmHg 58%
    10:00 +31°C° 0 mm 1 m/s 710 mmHg 51%
    11:00 +33°C° 0 mm 1 m/s 710 mmHg 45%
    12:00 +33°C° 0 mm 1 m/s 709 mmHg 45%
    13:00 +33°C° 0 mm 1 m/s 708 mmHg 44%
    14:00 +33°C° 0 mm 1 m/s 708 mmHg 44%
    15:00 +32°C° 0 mm 1 m/s 707 mmHg 47%
    16:00 +32°C° 0 mm 1 m/s 707 mmHg 51%
    17:00 +31°C° 0 mm 1 m/s 707 mmHg 54%
    18:00 +30°C° 0 mm 2 m/s 707 mmHg 56%
    19:00 +28°C° 0 mm 2 m/s 707 mmHg 58%
    20:00 +27°C° 0 mm 2 m/s 708 mmHg 59%
    21:00 +26°C° 0 mm 2 m/s 708 mmHg 61%
    22:00 +26°C° 0 mm 2 m/s 708 mmHg 63%
    23:00 +26°C° 0 mm 2 m/s 709 mmHg 65%
    Arată mai mult